Longville, MN

12:42 PM CDT on May 29, 2017 (GMT -0500)
Longville Municipal

Weather History for KXVG - September, 2012

Change the Weather History Date:

Sunday, September 9, 2012

  Actual Average (KPWC) Record (KPWC)
Temperature  
Mean Temperature 55 °F -  
Max Temperature 66 °F 70 °F 84 °F (2000)
Min Temperature 44 °F 48 °F 26 °F (2008)
Degree Days  
Heating Degree Days 10    
Growing Degree Days 5 (Base 50)    
Moisture  
Dew Point 49 °F    
Average Humidity 81    
Maximum Humidity 100    
Minimum Humidity 49    
Precipitation  
Precipitation 0.00 in - - ()
Sea Level Pressure  
Sea Level Pressure 30.13 in    
Wind  
Wind Speed 3 mph (WSW)    
Max Wind Speed 7 mph    
Max Gust Speed -    
Visibility 10 miles    
Events      
Averages and records for this station are not official NWS values.
T = Trace of Precipitation, MM = Missing Value Source: NWS Daily Summary

Daily Weather History Graph

Daily Weather History Graph

Search for Another Location

Airport or City:

Trip Planner

Search our weather history database for the weather conditions in past years. The results will help you decide how hot, cold, wet, or windy it might be!

Date:

Astronomy

Sep. 09, 2012 Rise Set
Actual Time 6:47 AM CDT 7:39 PM CDT
Civil Twilight 6:16 AM CDT 8:10 PM CDT
Nautical Twilight 5:39 AM CDT 8:47 PM CDT
Astronomical Twilight 5:00 AM CDT 9:25 PM CDT
Moon No Moon Rise 3:42 PM CDT (9/9)
Length of Visible Light 13h 54m
Length of Day
12h 52m
Last Quarter, 39% of the Moon is Illuminated
Sep 9
Last Quarter
Sep 15
New
Sep 22
First Quarter
Sep 29
Full
Oct 8
Last Quarter

Hourly Weather History & Observations

Time (CDT) Temp. Windchill Dew Point Humidity Pressure Visibility Wind Dir Wind Speed Gust Speed Precip Events Conditions
12:00 AM 53.6 °F - 51.8 °F 94% 30.08 in 10.0 mi NW 5.8 mph - N/A   Clear
12:20 AM 53.6 °F - 51.8 °F 94% 30.08 in 10.0 mi NW 4.6 mph - N/A   Clear
12:40 AM 53.6 °F - 50.0 °F 88% 30.09 in 10.0 mi NNW 5.8 mph - N/A   Clear
1:00 AM 53.6 °F - 50.0 °F 88% 30.09 in 10.0 mi NNW 5.8 mph - N/A   Clear
1:20 AM 53.6 °F - 50.0 °F 88% 30.09 in 10.0 mi NW 4.6 mph - N/A   Clear
1:40 AM 53.6 °F - 50.0 °F 88% 30.10 in 10.0 mi NNW 4.6 mph - N/A   Clear
2:00 AM 53.6 °F - 50.0 °F 88% 30.10 in 10.0 mi NNW 3.5 mph - N/A   Clear
2:20 AM 51.8 °F - 50.0 °F 94% 30.10 in 10.0 mi NW 3.5 mph - N/A   Clear
2:40 AM 51.8 °F - 50.0 °F 94% 30.10 in 10.0 mi Calm Calm - N/A   Clear
3:00 AM 51.8 °F - 50.0 °F 94% 30.11 in 10.0 mi Calm Calm - N/A   Clear
3:20 AM 51.8 °F - 50.0 °F 94% 30.11 in 10.0 mi NW 3.5 mph - N/A   Clear
3:40 AM 51.8 °F - 48.2 °F 88% 30.12 in 10.0 mi Calm Calm - N/A   Clear
4:00 AM 50.0 °F - 48.2 °F 94% 30.13 in 10.0 mi Calm Calm - N/A   Clear
4:20 AM 48.2 °F - 48.2 °F 100% 30.14 in 10.0 mi Calm Calm - N/A   Clear
4:40 AM 48.2 °F - 48.2 °F 100% 30.14 in 10.0 mi Calm Calm - N/A   Clear
5:00 AM 50.0 °F - 48.2 °F 94% 30.15 in 10.0 mi Calm Calm - N/A   Clear
5:20 AM 50.0 °F - 48.2 °F 94% 30.15 in 10.0 mi Calm Calm - N/A   Clear
5:40 AM 48.2 °F - 48.2 °F 100% 30.15 in 10.0 mi Calm Calm - N/A   Clear
6:00 AM 48.2 °F - 46.4 °F 93% 30.16 in 10.0 mi Calm Calm - N/A   Clear
6:20 AM 48.2 °F - 46.4 °F 93% 30.16 in 10.0 mi Calm Calm - N/A   Clear
6:40 AM 48.2 °F - 46.4 °F 93% 30.17 in 10.0 mi Calm Calm - N/A   Clear
7:00 AM 46.4 °F - 44.6 °F 93% 30.17 in 3.0 mi Calm Calm - N/A   Clear
7:20 AM 44.6 °F - 44.6 °F 100% 30.18 in 0.8 mi Calm Calm - N/A   Mist
7:40 AM 44.6 °F - 44.6 °F 100% 30.19 in 1.5 mi Calm Calm - N/A   Mist
8:00 AM 46.4 °F - 46.4 °F 100% 30.19 in 4.0 mi Calm Calm - N/A   Clear
8:20 AM 50.0 °F - 48.2 °F 94% 30.19 in 10.0 mi Calm Calm - N/A   Clear
8:40 AM 51.8 °F - 51.8 °F 100% 30.19 in 10.0 mi NNW 3.5 mph - N/A   Clear
9:00 AM 53.6 °F - 51.8 °F 94% 30.19 in 10.0 mi Calm Calm - N/A   Clear
9:20 AM 53.6 °F - 51.8 °F 94% 30.20 in 10.0 mi Calm Calm - N/A   Scattered Clouds
9:40 AM 53.6 °F - 51.8 °F 94% 30.20 in 10.0 mi Calm Calm - N/A   Scattered Clouds
10:00 AM 57.2 °F - 51.8 °F 82% 30.20 in 10.0 mi Calm Calm - N/A   Scattered Clouds
10:20 AM 57.2 °F - 50.0 °F 77% 30.20 in 10.0 mi Calm Calm - N/A   Scattered Clouds
10:40 AM 57.2 °F - 50.0 °F 77% 30.20 in 10.0 mi NNE 4.6 mph - N/A   Clear
11:00 AM 57.2 °F - 50.0 °F 77% 30.20 in 10.0 mi WNW 3.5 mph - N/A   Scattered Clouds
11:20 AM 57.2 °F - 50.0 °F 77% 30.21 in 10.0 mi West 5.8 mph - N/A   Scattered Clouds
11:40 AM 59.0 °F - 50.0 °F 72% 30.20 in 10.0 mi West 5.8 mph - N/A   Scattered Clouds
12:00 PM 60.8 °F - 50.0 °F 68% 30.20 in 10.0 mi WNW 4.6 mph - N/A   Scattered Clouds
12:20 PM 60.8 °F - 50.0 °F 68% 30.19 in 10.0 mi West 6.9 mph - N/A   Scattered Clouds
12:40 PM 62.6 °F - 51.8 °F 68% 30.19 in 10.0 mi NW 4.6 mph - N/A   Scattered Clouds
1:00 PM 60.8 °F - 50.0 °F 68% 30.19 in 10.0 mi West 4.6 mph - N/A   Scattered Clouds
1:20 PM 60.8 °F - 50.0 °F 68% 30.18 in 10.0 mi Calm Calm - N/A   Scattered Clouds
1:40 PM 62.6 °F - 48.2 °F 59% 30.17 in 10.0 mi SSW 3.5 mph - N/A   Scattered Clouds
2:00 PM 64.4 °F - 48.2 °F 56% 30.17 in 10.0 mi West 3.5 mph - N/A   Scattered Clouds
2:20 PM 64.4 °F - 48.2 °F 56% 30.16 in 10.0 mi Calm Calm - N/A   Clear
2:40 PM 64.4 °F - 46.4 °F 52% 30.15 in 10.0 mi Calm Calm - N/A   Clear
3:00 PM 64.4 °F - 46.4 °F 52% 30.15 in 10.0 mi SW 4.6 mph - N/A   Clear
3:20 PM 66.2 °F - 48.2 °F 52% 30.14 in 10.0 mi Calm Calm - N/A   Clear
3:40 PM 66.2 °F - 46.4 °F 49% 30.14 in 10.0 mi WSW 3.5 mph - N/A   Clear
4:00 PM 66.2 °F - 46.4 °F 49% 30.13 in 10.0 mi Calm Calm - N/A   Clear
4:20 PM 66.2 °F - 48.2 °F 52% 30.13 in 10.0 mi SW 4.6 mph - N/A   Clear
4:40 PM 66.2 °F - 48.2 °F 52% 30.12 in 10.0 mi SSW 5.8 mph - N/A   Clear
5:00 PM 66.2 °F - 48.2 °F 52% 30.11 in 10.0 mi South 4.6 mph - N/A   Clear
5:20 PM 66.2 °F - 48.2 °F 52% 30.11 in 10.0 mi SSE 3.5 mph - N/A   Clear
5:40 PM 66.2 °F - 48.2 °F 52% 30.10 in 10.0 mi SSW 3.5 mph - N/A   Clear
6:00 PM 66.2 °F - 48.2 °F 52% 30.09 in 10.0 mi SW 4.6 mph - N/A   Clear
6:20 PM 66.2 °F - 48.2 °F 52% 30.09 in 10.0 mi South 5.8 mph - N/A   Clear
6:40 PM 64.4 °F - 48.2 °F 56% 30.08 in 10.0 mi South 4.6 mph - N/A   Clear
7:00 PM 62.6 °F - 48.2 °F 59% 30.08 in 10.0 mi South 5.8 mph - N/A   Clear
7:20 PM 59.0 °F - 51.8 °F 77% 30.07 in 10.0 mi South 4.6 mph - N/A   Clear
7:40 PM 55.4 °F - 51.8 °F 88% 30.07 in 10.0 mi Calm Calm - N/A   Clear
8:00 PM 51.8 °F - 50.0 °F 94% 30.07 in 10.0 mi Calm Calm - N/A   Clear
8:20 PM 50.0 °F - 48.2 °F 94% 30.07 in 10.0 mi Calm Calm - N/A   Clear
8:40 PM 48.2 °F - 48.2 °F 100% 30.06 in 10.0 mi Calm Calm - N/A   Clear
9:00 PM 48.2 °F - 48.2 °F 100% 30.07 in 10.0 mi Calm Calm - N/A   Clear
9:20 PM 46.4 °F - 46.4 °F 100% 30.06 in 10.0 mi Calm Calm - N/A   Clear
9:40 PM 46.4 °F - 46.4 °F 100% 30.06 in 10.0 mi Calm Calm - N/A   Clear
10:00 PM 46.4 °F 45.2 °F 44.6 °F 93% 30.05 in 10.0 mi SE 3.5 mph - N/A   Clear
10:20 PM 48.2 °F - 46.4 °F 93% 30.05 in 10.0 mi SE 4.6 mph - N/A   Clear
10:40 PM 50.0 °F - 48.2 °F 94% 30.05 in 10.0 mi SE 4.6 mph - N/A   Clear
11:00 PM 51.8 °F - 48.2 °F 88% 30.05 in 10.0 mi SE 5.8 mph - N/A   Clear
11:20 PM 51.8 °F - 48.2 °F 88% 30.04 in 10.0 mi SE 6.9 mph - N/A   Clear
11:40 PM 51.8 °F - 50.0 °F 94% 30.04 in 10.0 mi SE 4.6 mph - N/A   Clear